| time (UTC) | temp F | wind direction | speed MPH | gust MPH | rain 1hr in | rain 24hr in | rain mn in | humidity % | barometer mb |
| 20260509083039 | 55 | 219 | 2.0 | 8.0 | 0.00 | 0.05 | 0.00 | 1 | 1006.6 |
| 20260509081536 | 55 | 219 | 5.0 | 7.0 | 0.00 | 0.05 | 0.00 | 1 | 1006.8 |
| 20260509080035 | 55 | 210 | 5.0 | 8.0 | 0.00 | 0.05 | 0.00 | 1 | 1006.9 |
| 20260509074523 | 55 | 219 | 5.0 | 8.0 | 0.00 | 0.05 | 0.00 | 1 | 1006.9 |
| 20260509073019 | 55 | 360 | 4.0 | 7.0 | 0.00 | 0.05 | 0.00 | 1 | 1007.2 |
| 20260509071514 | 55 | 360 | 4.0 | 8.0 | 0.00 | 0.05 | 0.00 | 1 | 1007.3 |
| 20260509070012 | 55 | 219 | 5.0 | 8.0 | 0.00 | 0.05 | 0.00 | 1 | 1007.3 |
| 20260509064505 | 55 | 248 | 4.0 | 9.0 | 0.00 | 0.05 | 0.00 | 1 | 1007.6 |
| 20260509063100 | 55 | 211 | 5.0 | 10.0 | 0.00 | 0.05 | 0.00 | 1 | 1007.7 |
| 20260509061614 | 55 | 215 | 5.0 | 8.0 | 0.00 | 0.05 | 0.00 | 1 | 1007.8 |
| 20260509060109 | 55 | 360 | 5.0 | 8.0 | 0.00 | 0.05 | 0.00 | 1 | 1007.9 |
| 20260509054550 | 55 | 211 | 5.0 | 10.0 | 0.00 | 0.05 | 0.00 | 1 | 1008.2 |
| 20260509053042 | 55 | 360 | 6.0 | 10.0 | 0.00 | 0.05 | 0.00 | 1 | 1008.2 |
| 20260509051538 | 55 | 360 | 5.0 | 8.0 | 0.00 | 0.05 | 0.00 | 1 | 1008.2 |
| 20260509050052 | 55 | 360 | 5.0 | 10.0 | 0.00 | 0.05 | 0.00 | 1 | 1008.3 |
| 20260509044528 | 55 | 231 | 4.0 | 7.0 | 0.00 | 0.05 | 0.00 | 1 | 1008.2 |
| 20260509043025 | 55 | 360 | 3.0 | 9.0 | 0.00 | 0.05 | 0.00 | 1 | 1008.2 |
| 20260509041520 | 55 | 216 | 4.0 | 7.0 | 0.00 | 0.05 | 0.00 | 1 | 1008.2 |
| 20260509040016 | 55 | 360 | 5.0 | 10.0 | 0.00 | 0.05 | 0.00 | 1 | 1008.3 |
| 20260509034511 | 55 | 200 | 3.0 | 9.0 | 0.00 | 0.05 | 0.05 | 1 | 1008.4 |
| 20260509033007 | 55 | 219 | 6.0 | 9.0 | 0.00 | 0.05 | 0.05 | 1 | 1008.5 |
| 20260509031503 | 55 | 216 | 4.0 | 10.0 | 0.00 | 0.05 | 0.05 | 1 | 1008.7 |
| 20260509030007 | 55 | 202 | 3.0 | 8.0 | 0.00 | 0.05 | 0.05 | 1 | 1008.6 |
| 20260509024501 | 55 | 213 | 3.0 | 7.0 | 0.00 | 0.05 | 0.05 | 1 | 1008.8 |
| 20260509023001 | 55 | 213 | 2.0 | 8.0 | 0.00 | 0.05 | 0.05 | 1 | 1008.9 |
| 20260509021502 | 55 | 196 | 4.0 | 8.0 | 0.00 | 0.05 | 0.05 | 1 | 1008.8 |
| 20260509020001 | 55 | 219 | 3.0 | 8.0 | 0.00 | 0.05 | 0.05 | 1 | 1008.8 |
| 20260509014601 | 55 | 217 | 3.0 | 8.0 | 0.01 | 0.05 | 0.05 | 1 | 1008.7 |
| 20260509013101 | 55 | 360 | 4.0 | 7.0 | 0.01 | 0.05 | 0.05 | 1 | 1008.7 |
| 20260509011551 | 55 | 360 | 4.0 | 8.0 | 0.01 | 0.05 | 0.05 | 1 | 1008.7 |
| 20260509010049 | 55 | 211 | 5.0 | 8.0 | 0.01 | 0.05 | 0.05 | 1 | 1008.8 |
| 20260509004543 | 55 | 209 | 1.0 | 4.0 | 0.00 | 0.04 | 0.04 | 1 | 1008.7 |
| 20260509003050 | 55 | 360 | 2.0 | 5.0 | 0.00 | 0.04 | 0.04 | 1 | 1008.8 |
| 20260509001534 | 55 | 360 | 2.0 | 6.0 | 0.00 | 0.04 | 0.04 | 1 | 1008.9 |
| 20260509000037 | 55 | 211 | 1.0 | 4.0 | 0.00 | 0.04 | 0.04 | 1 | 1008.9 |
| 20260508234534 | 54 | 210 | 1.0 | 3.0 | 0.01 | 0.04 | 0.04 | 1 | 1008.8 |
| 20260508233020 | 54 | 360 | 1.0 | 3.0 | 0.02 | 0.04 | 0.04 | 1 | 1008.8 |
| 20260508231516 | 54 | 209 | 2.0 | 6.0 | 0.02 | 0.04 | 0.04 | 1 | 1008.8 |
| 20260508230012 | 54 | 214 | 4.0 | 7.0 | 0.02 | 0.04 | 0.04 | 1 | 1008.8 |
| 20260508224507 | 54 | 360 | 1.0 | 6.0 | 0.01 | 0.03 | 0.03 | 1 | 1009.2 |
| 20260508223007 | 53 | 232 | 2.0 | 3.0 | 0.00 | 0.02 | 0.02 | 1 | 1009.2 |
| 20260508221506 | 54 | 331 | 0.0 | 4.0 | 0.01 | 0.02 | 0.02 | 1 | 1009.1 |
| 20260508220001 | 53 | 10 | 3.0 | 6.0 | 0.01 | 0.02 | 0.02 | 1 | 1009.0 |
| 20260508214608 | 54 | 5 | 1.0 | 6.0 | 0.02 | 0.02 | 0.02 | 1 | 1009.1 |
| 20260508213053 | 55 | 259 | 2.0 | 6.0 | 0.02 | 0.02 | 0.02 | 1 | 1009.4 |
| 20260508211549 | 57 | 13 | 2.0 | 5.0 | 0.01 | 0.01 | 0.01 | 1 | 1009.3 |
| 20260508210045 | 58 | 19 | 1.0 | 6.0 | 0.01 | 0.01 | 0.01 | 1 | 1009.2 |
| 20260508204542 | 59 | 360 | 3.0 | 8.0 | 0.00 | 0.00 | 0.00 | 20 | 1009.4 |
| 20260508203039 | 59 | 254 | 3.0 | 8.0 | 0.00 | 0.00 | 0.00 | 26 | 1009.3 |
| 20260508201637 | 60 | 306 | 1.0 | 6.0 | 0.00 | 0.00 | 0.00 | 29 | 1009.4 |
| 20260508200037 | 60 | 288 | 3.0 | 10.0 | 0.00 | 0.00 | 0.00 | 43 | 1009.5 |
| 20260508194607 | 60 | 360 | 5.0 | 12.0 | 0.00 | 0.00 | 0.00 | 49 | 1009.4 |
| 20260508193036 | 62 | 217 | 9.0 | 13.0 | 0.00 | 0.00 | 0.00 | 55 | 1009.4 |
| 20260508191535 | 63 | 194 | 9.0 | 19.0 | 0.00 | 0.00 | 0.00 | 55 | 1009.2 |
| 20260508190033 | 65 | 360 | 10.0 | 16.0 | 0.00 | 0.00 | 0.00 | 52 | 1009.3 |
| 20260508184534 | 65 | 360 | 6.0 | 12.0 | 0.00 | 0.00 | 0.00 | 51 | 1009.5 |
| 20260508183030 | 66 | 192 | 11.0 | 16.0 | 0.00 | 0.00 | 0.00 | 50 | 1009.7 |
| 20260508181540 | 65 | 360 | 10.0 | 21.0 | 0.00 | 0.00 | 0.00 | 50 | 1009.7 |
| 20260508180026 | 65 | 360 | 8.0 | 15.0 | 0.00 | 0.00 | 0.00 | 51 | 1009.9 |
| 20260508174522 | 64 | 219 | 9.0 | 18.0 | 0.00 | 0.00 | 0.00 | 51 | 1010.2 |
| 20260508173033 | 63 | 221 | 6.0 | 18.0 | 0.00 | 0.00 | 0.00 | 52 | 1010.5 |
| 20260508171524 | 63 | 216 | 9.0 | 14.0 | 0.00 | 0.00 | 0.00 | 52 | 1010.7 |
| 20260508170014 | 63 | 360 | 8.0 | 15.0 | 0.00 | 0.00 | 0.00 | 51 | 1011.0 |
| 20260508164516 | 62 | 239 | 5.0 | 10.0 | 0.00 | 0.00 | 0.00 | 53 | 1011.2 |
| 20260508163010 | 62 | 360 | 6.0 | 12.0 | 0.00 | 0.00 | 0.00 | 53 | 1011.6 |
| 20260508161504 | 61 | 242 | 7.0 | 13.0 | 0.00 | 0.00 | 0.00 | 53 | 1012.1 |
| 20260508160002 | 60 | 360 | 3.0 | 9.0 | 0.00 | 0.00 | 0.00 | 53 | 1012.2 |
| 20260508154601 | 60 | 296 | 7.0 | 12.0 | 0.00 | 0.00 | 0.00 | 53 | 1012.5 |
| 20260508153057 | 59 | 236 | 6.0 | 11.0 | 0.00 | 0.00 | 0.00 | 53 | 1012.7 |
| 20260508151605 | 57 | 238 | 5.0 | 10.0 | 0.00 | 0.00 | 0.00 | 52 | 1012.6 |
| 20260508150050 | 56 | 360 | 6.0 | 10.0 | 0.00 | 0.00 | 0.00 | 50 | 1012.7 |
| 20260508144549 | 55 | 209 | 6.0 | 11.0 | 0.00 | 0.00 | 0.00 | 52 | 1012.9 |
| 20260508143049 | 55 | 360 | 7.0 | 13.0 | 0.00 | 0.00 | 0.00 | 53 | 1012.9 |
| 20260508141544 | 55 | 360 | 8.0 | 13.0 | 0.00 | 0.00 | 0.00 | 49 | 1012.8 |
| 20260508140039 | 53 | 201 | 5.0 | 9.0 | 0.00 | 0.00 | 0.00 | 37 | 1012.7 |
| 20260508134536 | 52 | 213 | 5.0 | 8.0 | 0.00 | 0.00 | 0.00 | 34 | 1012.9 |
| 20260508133050 | 52 | 211 | 5.0 | 8.0 | 0.00 | 0.00 | 0.00 | 41 | 1012.7 |
| 20260508131534 | 52 | 218 | 5.0 | 8.0 | 0.00 | 0.00 | 0.00 | 42 | 1012.9 |
| 20260508130033 | 51 | 216 | 4.0 | 7.0 | 0.00 | 0.00 | 0.00 | 40 | 1013.0 |
| 20260508124531 | 51 | 219 | 4.0 | 6.0 | 0.00 | 0.00 | 0.00 | 41 | 1012.9 |
| 20260508123037 | 51 | 360 | 3.0 | 8.0 | 0.00 | 0.00 | 0.00 | 41 | 1013.0 |
| 20260508121530 | 51 | 226 | 5.0 | 10.0 | 0.00 | 0.00 | 0.00 | 42 | 1013.0 |
| 20260508120030 | 51 | 360 | 6.0 | 8.0 | 0.00 | 0.00 | 0.00 | 46 | 1013.0 |
| 20260508114528 | 51 | 219 | 6.0 | 9.0 | 0.00 | 0.00 | 0.00 | 51 | 1012.9 |
| 20260508113031 | 51 | 237 | 6.0 | 11.0 | 0.00 | 0.00 | 0.00 | 51 | 1012.7 |
| 20260508111528 | 51 | 212 | 6.0 | 11.0 | 0.00 | 0.00 | 0.00 | 52 | 1012.4 |
| 20260508110030 | 51 | 256 | 6.0 | 12.0 | 0.00 | 0.00 | 0.00 | 53 | 1012.4 |
| 20260508104525 | 51 | 245 | 6.0 | 11.0 | 0.00 | 0.00 | 0.00 | 52 | 1012.4 |
| 20260508103025 | 50 | 199 | 3.0 | 8.0 | 0.00 | 0.00 | 0.00 | 48 | 1012.4 |
| 20260508101524 | 50 | 229 | 2.0 | 7.0 | 0.00 | 0.00 | 0.00 | 48 | 1012.3 |
| 20260508100026 | 49 | 217 | 4.0 | 6.0 | 0.00 | 0.00 | 0.00 | 48 | 1012.2 |
| 20260508094523 | 49 | 220 | 5.0 | 7.0 | 0.00 | 0.00 | 0.00 | 50 | 1012.2 |
| 20260508093024 | 49 | 238 | 4.0 | 8.0 | 0.00 | 0.00 | 0.00 | 51 | 1012.3 |
| 20260508091526 | 49 | 360 | 5.0 | 7.0 | 0.00 | 0.00 | 0.00 | 52 | 1012.2 |
| 20260508090023 | 50 | 221 | 5.0 | 8.0 | 0.00 | 0.00 | 0.00 | 53 | 1012.4 |
| 20260508084518 | 50 | 225 | 5.0 | 9.0 | 0.00 | 0.00 | 0.00 | 54 | 1012.6 |